Theta_e
312 311 310 309 308 308 307 306 306 305 305 306 306 306 306 308 308 309 308 314 317 319 322 324 325 326 326 330 331 330 330 328 327 328 331 332 333 334 333 333 332 333 333
311 309 306 305 306 305 305 305 303 302 302 303 302 303 305 305 306 306 307 307 313 315 317 320 322 323 325 325 327 330 330 330 329 327 329 330 331 332 332 331 332 332 332
307 304 304 304 304 304 303 303 302 302 300 301 300 302 303 303 303 305 305 306 306 310 312 313 314 317 319 321 322 324 328 329 330 328 328 329 330 331 331 331 330 331 332
305 304 303 302 303 303 302 301 300 299 298 298 298 300 300 302 302 304 303 304 304 303 303 308 308 310 311 315 320 322 323 325 329 329 329 328 328 329 330 330 330 330 330
305 302 303 302 304 301 299 299 298 298 297 298 300 300 299 299 300 301 301 302 302 300 300 303 304 304 306 308 313 318 322 323 324 327 329 328 328 327 328 329 329 329 329
305 305 303 300 299 298 298 298 297 298 297 298 300 300 298 298 299 297 298 300 299 299 298 299 298 299 302 304 308 312 318 321 323 324 327 327 327 327 327 328 328 329 329
301 299 298 298 298 297 297 298 297 296 297 297 295 295 296 297 296 296 296 297 296 297 298 297 297 298 297 302 306 309 314 316 319 320 323 325 325 325 325 326 327 326 327
299 299 297 297 298 297 296 296 295 294 295 295 293 292 289 291 294 295 295 295 294 295 296 296 296 297 296 299 302 307 309 311 313 315 317 317 321 323 323 324 324 324 325
299 298 298 297 297 297 295 294 293 292 291 293 293 292 287 285 289 292 293 293 292 293 293 294 295 296 296 298 302 303 305 306 307 310 313 315 316 319 322 323 322 321 323
298 299 297 298 296 295 294 294 295 292 292 290 292 294 292 290 287 286 291 292 292 292 292 292 293 294 295 297 301 301 302 303 303 306 309 312 314 316 318 320 320 319 320
299 298 297 294 293 293 292 292 291 291 291 290 289 289 289 289 289 288 284 287 290 293 292 292 292 292 294 295 296 299 301 301 301 303 306 307 310 313 317 318 317 316 317
296 294 295 293 293 292 291 291 291 290 290 289 289 288 288 288 286 285 284 285 286 289 291 293 291 292 293 294 295 298 299 300 299 300 302 305 306 308 311 312 313 314 315
293 291 293 292 292 292 292 292 291 290 289 289 287 287 287 287 287 287 286 284 284 286 289 292 292 293 292 292 293 296 299 298 299 298 299 301 303 303 305 307 309 312 314
292 291 292 293 293 293 292 292 291 290 289 288 287 286 286 286 285 286 286 283 280 283 284 286 290 291 292 292 292 293 293 296 298 297 297 298 300 301 301 303 304 308 310
293 291 292 294 294 293 291 290 289 287 287 286 286 285 282 283 283 283 283 283 281 276 278 282 284 289 290 291 292 291 289 293 297 297 296 296 297 298 299 300 301 301 303
291 294 293 292 291 290 289 287 287 286 286 285 284 282 282 282 282 282 281 281 281 279 276 282 284 286 288 289 290 290 288 291 291 294 295 295 295 296 297 297 299 300 301
292 292 291 290 289 289 288 286 285 285 284 283 282 281 281 281 281 280 280 280 279 279 277 279 282 284 285 285 286 287 288 287 288 290 293 295 294 294 295 295 296 297 298
290 290 289 290 291 289 286 286 284 284 283 281 281 281 281 282 280 279 279 278 278 279 278 277 280 281 282 284 284 284 285 286 287 289 290 291 294 294 294 294 295 295 296
288 289 292 291 288 286 285 284 283 283 281 281 281 280 280 280 279 278 278 278 278 279 279 280 279 282 282 282 282 283 283 284 286 287 287 289 291 293 294 294 294 295 296
289 291 292 290 286 285 285 283 282 281 281 281 281 281 280 280 279 278 278 279 278 278 278 277 278 280 281 282 281 281 280 282 282 284 285 286 289 290 293 295 294 295 295
290 289 287 286 285 284 284 282 282 282 281 280 281 281 281 281 283 282 279 279 278 277 278 278 277 278 279 280 279 281 280 280 280 281 282 283 285 285 288 290 295 295 294
289 289 286 283 282 283 286 286 284 281 280 279 278 278 278 279 279 280 280 280 280 278 277 277 277 276 277 279 280 280 279 277 277 281 281 280 283 284 285 287 288 290 293
289 283 281 281 280 282 285 283 283 280 278 277 276 276 276 278 278 278 279 280 280 281 280 279 278 278 278 279 280 279 279 278 277 280 280 279 280 282 285 285 287 288 290
283 281 280 280 280 281 282 282 281 278 276 277 276 276 276 276 278 279 279 279 279 280 280 281 280 280 281 281 281 280 280 280 280 280 281 278 281 281 282 283 286 288 289
282 281 281 279 278 277 281 280 279 276 276 276 277 277 277 277 279 281 279 278 278 279 281 283 283 282 282 282 282 282 279 279 277 279 280 280 279 280 280 282 284 286 288
282 281 280 279 280 277 279 280 279 274 271 275 276 277 278 278 279 280 278 276 276 277 278 279 280 280 281 280 281 280 279 277 278 275 279 279 279 279 277 279 280 282 284
Wind_Speed
4 3 4 4 4 4 4 4 5 5 5 6 5 6 6 6 7 4 3 13 15 17 18 17 18 18 19 18 13 13 14 14 12 11 10 9 10 11 11 12 12 14 16
4 4 4 4 4 4 4 4 4 4 4 4 5 5 5 5 5 6 4 6 13 15 17 18 19 19 19 19 19 16 14 14 13 13 12 11 9 10 10 11 12 13 16
6 6 4 4 4 4 5 5 5 4 4 3 4 4 4 5 5 5 4 4 6 14 17 19 20 21 21 20 20 19 19 16 14 15 14 13 10 10 10 9 11 12 13
7 5 4 4 4 4 3 3 2 2 3 3 4 4 4 4 5 5 4 4 4 6 9 19 21 21 22 23 23 21 20 20 17 16 14 13 13 11 9 9 10 11 13
6 5 4 4 3 4 3 3 2 1 3 4 4 4 4 3 3 3 4 4 5 4 4 13 19 19 21 22 22 23 22 21 21 20 16 15 14 13 11 8 9 10 11
5 4 6 3 5 3 4 3 3 2 1 1 4 2 5 3 3 3 3 4 3 4 4 5 7 9 19 20 21 22 22 21 21 22 21 17 16 14 12 10 9 9 10
5 6 4 5 3 4 3 4 2 3 3 4 2 3 3 1 3 4 1 2 4 3 3 3 5 4 7 18 17 19 20 21 21 21 22 20 17 16 13 9 9 8 10
5 5 5 3 3 3 5 5 4 3 2 4 2 2 3 4 3 8 4 4 4 4 4 8 7 6 6 6 11 18 15 17 19 19 20 19 18 14 16 12 9 9 9
5 4 4 4 4 3 3 3 3 4 2 2 5 1 4 3 6 3 10 4 6 4 4 7 8 7 7 6 9 11 15 14 16 18 18 18 17 17 15 15 12 10 10
3 3 3 3 4 3 4 3 3 3 3 3 3 2 1 2 5 8 0 5 6 7 8 5 6 8 7 6 10 13 12 14 16 16 16 16 17 17 18 16 14 12 11
1 1 1 2 3 2 1 1 2 2 1 1 1 2 2 3 4 4 10 8 7 7 5 6 4 5 6 7 6 8 14 11 14 14 14 14 14 17 15 16 15 12 12
3 3 4 3 3 2 1 1 1 1 2 2 1 2 2 2 3 3 5 8 9 6 9 7 5 4 5 5 10 15 12 7 9 13 15 14 13 13 15 7 8 12 14
3 5 2 1 1 2 2 3 3 3 3 2 2 2 2 3 2 2 4 5 3 5 3 6 3 2 5 4 6 13 13 10 8 10 13 15 12 13 12 12 10 9 12
2 2 2 3 4 4 4 4 2 3 3 3 5 3 2 2 1 2 2 3 6 3 6 6 3 3 4 3 8 12 7 12 10 8 8 10 13 12 12 11 12 10 12
2 4 4 4 5 5 6 4 3 4 3 4 4 3 2 3 2 3 2 2 3 7 10 6 4 5 4 6 7 4 5 11 12 9 8 8 6 8 13 15 13 13 17
4 5 6 5 5 6 5 3 3 4 5 3 2 3 3 3 4 3 3 3 3 7 10 5 8 4 7 9 9 5 5 10 12 12 10 6 7 7 8 14 15 14 17
6 7 4 5 4 3 5 3 5 5 5 3 3 4 6 5 4 3 3 4 4 5 10 10 9 10 10 10 8 4 4 4 4 11 10 10 5 2 5 9 14 15 16
6 5 3 4 4 5 6 6 5 4 3 4 5 5 6 6 6 5 5 7 6 7 8 15 11 10 9 8 5 5 5 5 3 7 9 11 9 8 4 5 10 10 12
4 4 5 4 5 3 4 4 3 1 3 5 5 6 7 7 8 6 7 7 6 8 8 9 11 8 7 6 7 5 4 3 4 9 10 9 11 10 11 10 6 5 7
5 5 5 4 3 1 1 3 2 2 5 5 6 6 7 8 9 9 9 9 8 7 8 8 10 11 6 5 4 6 5 2 3 4 8 10 9 10 7 14 13 11 6
5 4 3 1 2 4 3 4 4 5 5 6 6 7 7 12 21 17 10 9 10 9 8 8 8 8 8 6 7 4 5 3 3 3 3 3 2 4 4 7 7 11 10
4 4 4 4 5 4 7 8 6 4 5 7 8 9 8 15 13 19 20 22 18 11 11 8 9 9 10 8 4 4 5 2 3 2 2 2 2 4 4 3 8 7 1
3 4 3 4 4 4 9 9 8 4 5 6 9 9 10 9 14 11 16 20 19 21 13 11 8 8 10 9 9 8 6 4 4 3 1 5 1 4 3 5 8 8 7
2 0 3 4 4 4 7 9 10 4 4 7 8 9 9 11 10 14 13 10 11 11 11 8 8 9 9 9 10 9 8 6 4 4 3 6 2 5 3 4 9 8 8
1 2 3 4 4 3 7 9 8 4 6 8 9 9 10 10 15 21 12 10 11 10 11 15 16 17 17 17 13 6 6 8 7 5 5 4 3 4 2 3 5 12 11
3 4 3 4 4 2 6 8 8 2 4 6 7 8 13 13 20 19 10 8 10 10 10 10 8 9 11 10 14 7 6 7 2 1 4 5 3 3 3 2 2 4 3
Wind_Direction
110 103 79 56 39 28 36 37 35 23 20 16 14 11 354 347 344 340 331 337 343 342 338 335 329 319 308 302 277 270 275 284 287 285 282 284 291 295 297 291 253 234 233
97 78 71 62 53 35 38 45 31 23 17 11 358 360 342 336 332 335 335 336 348 359 0 358 353 343 332 317 308 295 269 269 276 282 281 276 279 285 293 300 282 238 234
83 82 74 61 44 35 44 42 22 14 6 347 348 348 338 333 338 347 357 357 2 21 24 19 11 6 359 345 328 311 300 271 265 272 276 279 279 278 285 297 302 285 242
75 79 80 75 95 69 47 53 25 328 316 355 337 331 325 320 344 15 28 29 20 14 10 12 5 360 355 352 346 331 312 298 270 260 262 270 273 272 276 286 294 302 275
95 100 82 51 55 62 32 7 359 3 342 347 331 324 319 325 8 33 27 40 30 20 3 -0 360 355 349 343 340 339 329 312 293 287 257 260 266 272 270 272 285 294 303
36 66 70 42 36 34 22 8 12 335 284 296 298 315 286 325 73 37 9 23 19 12 358 351 350 340 339 335 331 331 331 325 312 290 282 257 250 255 266 266 267 282 293
70 62 64 47 31 57 47 26 348 352 317 334 6 319 311 195 77 12 21 353 2 339 330 340 347 324 324 326 327 324 326 329 326 317 308 287 263 247 245 251 260 273 280
69 80 87 87 77 69 38 32 37 328 314 19 338 298 339 325 349 335 352 332 345 331 330 345 329 316 310 306 312 322 326 330 331 326 314 303 308 280 250 249 257 271 281
96 103 91 77 66 56 32 24 22 39 340 323 24 45 345 309 338 311 327 327 319 330 321 325 313 311 307 303 317 320 315 331 330 329 326 312 295 287 280 239 245 259 264
59 95 96 98 81 61 49 18 32 30 37 18 337 18 236 255 303 306 61 325 302 318 304 287 294 302 300 302 305 313 333 339 333 326 329 326 314 287 268 246 234 241 253
284 307 81 70 76 90 107 69 36 18 38 246 253 306 276 268 249 293 307 329 300 295 279 281 269 286 299 307 303 295 319 331 339 334 329 334 334 339 277 253 242 238 243
243 222 197 179 175 125 33 312 268 284 275 271 284 293 270 297 294 287 299 315 319 326 308 297 282 322 308 307 316 319 314 327 344 349 344 336 341 339 348 317 271 257 245
228 228 202 225 337 319 292 258 271 293 308 288 303 288 268 265 266 273 314 319 320 304 285 298 295 279 312 319 323 342 322 325 335 351 354 349 337 346 338 339 330 300 266
260 211 213 208 235 237 266 265 252 268 286 295 290 281 287 293 322 305 295 309 302 254 289 270 291 280 294 304 304 335 339 326 323 338 354 3 358 337 344 343 358 344 305
257 239 232 228 233 261 252 252 247 256 257 266 259 237 259 273 289 294 288 268 279 299 290 282 259 256 292 290 275 295 319 324 322 315 322 337 356 351 352 338 331 338 344
251 256 241 239 287 264 246 227 256 255 256 261 249 280 282 270 283 278 277 274 248 271 282 291 284 269 278 283 272 260 290 315 313 312 295 302 352 349 5 347 348 335 329
255 248 257 296 301 328 284 261 262 272 247 266 270 272 278 278 285 290 284 274 273 264 278 287 281 286 281 265 263 274 277 284 295 308 327 272 272 9 18 355 338 336 328
268 272 262 269 273 248 239 238 267 270 259 280 286 288 296 304 287 274 274 277 272 270 274 283 282 283 270 264 258 271 279 287 287 292 330 330 292 226 194 79 312 340 306
303 279 270 280 295 275 280 269 226 266 280 282 294 290 289 289 286 278 275 276 270 276 273 279 295 284 275 268 274 262 258 259 264 294 303 308 316 297 221 168 247 272 290
272 280 282 291 270 242 325 105 63 332 308 298 293 283 288 288 286 287 282 278 280 282 284 278 279 279 263 268 248 258 261 246 274 284 290 285 290 322 317 231 194 213 192
291 307 317 3 334 67 73 54 6 337 322 311 305 306 305 300 305 304 302 297 297 281 272 276 280 287 291 286 273 268 248 268 287 258 287 294 313 320 339 352 243 220 202
315 307 350 45 60 46 45 32 23 352 333 328 321 315 305 306 302 311 309 300 296 290 280 270 271 263 272 274 254 270 262 255 278 242 256 280 320 308 296 315 333 353 139
329 350 70 89 76 58 47 9 356 350 337 320 311 310 311 315 314 300 294 293 289 288 276 285 285 287 277 264 265 270 247 235 236 254 279 279 301 276 280 300 301 303 308
326 159 120 95 91 52 23 4 357 340 320 304 305 305 308 304 303 305 300 313 305 289 276 266 256 266 272 272 261 257 258 254 245 252 210 263 204 259 275 274 272 278 270
224 155 128 107 90 44 10 3 357 330 307 306 309 312 311 316 309 325 322 318 319 303 315 288 282 283 285 285 278 278 232 236 242 239 196 237 207 250 277 272 249 243 252
152 144 125 116 111 52 0 350 346 288 295 303 311 309 318 323 325 335 331 332 312 325 329 312 285 279 279 275 278 255 252 262 244 208 218 217 225 200 277 237 273 250 239